Tracking 17154 objects as of 1-August-2015
HD Live streaming from Space Station

SL-16 DEB

Track SL-16 DEB now!
10-day predictions
SL-16 DEB is classified as:


NORAD ID: 20628
Int'l Code: 1990-046E
Perigee: 847.1 km
Apogee: 1,154.5 km
Inclination: 71.0 °
Period: 105.0 minutes
Semi major axis: 7371 km
RCS: 0.0854 m2 (small)
Launch date: May 22, 1990
Source: Commonwealth of Independent States (former USSR) (CIS)

Note: This is SATELLITE DEBRIS
Your satellite tracking list
Your tracking list is empty





NASA's NSSDC Master Catalog

Two Line Element Set (TLE):
1 20628U 90046E   15210.93456279  .00000010  00000-0  48618-4 0  9993
2 20628 070.9776 037.7428 0208493 068.1677 294.1457 13.71660496260528

Source of the keplerian elements: AFSPC

N2YO: 230